RH
78 77 79 80 80 81 83 83 84 84 85 86 87 89 89 90 80 18 13 21 26 69 66 13 14 12 12 12 14 16 35 26 24 23 26 25 28 28 25 27 30 30 29 30 28
77 77 79 80 81 80 82 84 83 84 85 86 87 89 89 91 19 9 49 66 61 62 15 11 11 11 11 12 12 16 27 21 17 18 22 23 25 28 33 31 33 32 28 28 28
76 78 79 80 80 80 82 83 83 84 85 85 86 88 89 70 14 10 61 64 63 52 12 10 10 10 12 10 12 15 20 18 18 19 21 24 24 22 27 43 27 36 35 30 30
78 79 79 79 80 80 81 82 83 85 85 86 86 88 87 20 16 10 50 49 58 20 13 10 10 11 12 13 11 18 16 17 20 21 22 25 24 24 31 28 23 29 29 29 30
78 79 80 82 79 81 81 82 83 85 85 85 84 87 30 11 9 11 38 36 9 12 11 10 10 12 14 12 11 15 17 18 20 20 21 24 26 25 31 29 24 27 28 28 28
79 79 80 80 83 81 81 83 84 85 85 84 83 89 25 10 5 6 6 6 6 8 9 8 9 10 11 12 15 13 16 18 19 21 23 26 29 23 28 24 26 28 28 27 26
80 80 80 80 81 82 82 83 85 85 84 83 81 40 12 7 4 6 6 6 6 6 8 8 8 10 10 12 11 13 18 18 19 20 24 41 32 24 26 24 26 26 26 26 26
80 80 80 81 80 82 85 85 86 84 83 82 80 27 12 4 4 5 5 6 6 6 7 6 8 9 10 12 12 15 15 71 20 21 33 74 40 28 27 27 26 25 25 27 26
83 81 81 82 84 86 88 86 85 82 80 72 36 16 8 14 4 5 6 7 8 7 8 7 8 10 10 12 16 16 81 41 21 19 20 35 31 27 24 26 26 25 25 26 27
84 83 82 86 88 88 87 89 73 73 55 24 15 14 8 4 3 5 6 6 7 8 9 11 10 11 11 15 32 24 46 20 17 22 20 21 22 26 24 24 26 25 24 26 25
84 81 84 88 87 88 65 24 18 17 16 8 6 6 5 4 4 4 6 7 8 9 12 12 12 12 19 36 19 23 20 15 13 13 17 19 18 23 25 23 24 25 24 24 24
81 81 82 86 88 88 58 15 12 12 11 8 6 5 5 5 5 4 6 10 11 13 12 12 13 12 14 12 11 12 13 16 16 12 14 16 16 15 23 24 22 23 23 23 22
81 82 84 86 86 64 19 11 12 11 11 6 6 5 5 5 4 4 6 9 11 13 13 14 10 13 13 12 12 11 16 28 23 13 11 15 22 24 17 22 22 20 20 19 20
81 82 86 88 70 17 15 11 11 12 13 8 7 5 5 5 5 3 4 8 10 12 12 11 10 14 12 13 11 17 14 14 13 15 46 28 70 42 18 23 23 21 20 18 18
85 82 89 88 41 17 16 11 12 12 16 8 6 6 4 5 4 4 4 6 10 11 11 13 13 15 14 13 12 17 12 13 12 13 21 22 20 21 13 20 22 21 20 19 18
84 83 87 51 38 19 15 14 12 14 13 10 8 6 6 5 4 4 4 4 6 9 10 10 9 12 11 11 12 10 10 10 11 11 17 16 16 17 28 14 18 17 18 19 19
87 89 80 38 19 15 15 16 15 14 9 11 8 6 5 5 4 6 5 5 7 12 14 11 11 12 10 14 13 11 11 15 21 16 24 12 12 21 16 16 17 19 18 17 19
91 93 71 35 19 19 18 16 22 6 8 8 7 5 5 4 4 5 5 5 5 7 9 12 13 13 9 12 13 12 10 15 33 28 52 21 14 18 14 18 20 20 19 20 18
95 40 28 22 25 20 19 18 13 8 10 9 7 7 6 4 4 5 5 5 4 5 9 10 11 8 9 9 10 14 15 11 27 41 24 19 17 12 16 20 21 23 25 25 21
40 23 20 19 18 20 20 23 11 9 10 8 9 6 8 6 5 5 6 5 4 4 4 7 12 8 8 8 8 10 12 14 11 23 25 17 25 20 20 24 24 25 26 30 33
38 23 20 18 17 20 20 14 11 8 10 9 8 7 6 6 5 6 6 5 4 4 5 6 9 11 9 11 11 10 12 9 13 14 25 23 21 23 23 25 27 26 27 31 34
25 22 19 17 20 16 16 12 33 8 8 9 8 8 6 5 5 6 6 6 4 4 7 7 8 12 11 7 7 8 10 8 10 16 10 11 19 16 21 22 26 29 29 32 35
30 20 16 16 19 14 12 11 12 9 9 9 8 7 6 7 9 6 6 4 5 5 8 8 10 12 10 8 9 12 11 8 7 7 14 23 23 14 22 30 32 36 37 40 41
31 21 19 18 15 15 14 14 12 9 9 9 9 8 9 9 9 13 8 5 6 5 41 17 8 10 12 13 9 11 9 10 7 10 10 42 49 27 27 36 36 40 42 44 47
30 24 20 18 15 13 12 13 13 12 10 10 12 11 10 12 11 12 10 7 6 24 11 8 13 10 8 9 9 12 9 9 9 10 13 29 33 37 29 32 36 36 38 42 45
33 34 26 19 17 14 24 18 17 14 12 12 14 10 10 15 14 12 9 10 9 7 8 7 14 12 12 8 8 8 7 8 9 9 10 11 12 12 21 28 33 36 37 39 41
23 25 33 34 19 18 17 18 19 18 16 12 12 12 18 14 13 13 12 8 7 11 11 8 8 12 16 10 9 11 8 8 9 10 10 13 20 16 23 29 31 31 32 39 38
Wind_Speed
12 13 13 13 14 14 15 14 14 14 15 16 18 18 18 18 23 9 12 5 2 8 7 13 11 8 10 6 7 4 3 8 12 11 8 7 10 8 7 9 10 2 15 21 23
13 13 14 14 15 14 14 14 14 14 15 16 18 18 17 18 16 17 4 6 3 8 11 11 11 5 10 3 1 7 2 13 12 15 10 4 9 8 7 8 11 8 21 23 22
13 14 14 14 15 15 15 15 15 15 16 17 19 19 17 16 14 3 4 7 2 9 14 13 11 10 7 6 4 2 8 8 14 10 8 7 8 5 11 6 13 14 20 21 19
13 14 14 15 15 16 15 15 15 15 15 17 18 19 19 11 6 9 6 5 5 10 13 14 12 12 5 9 7 6 7 8 8 7 8 9 5 3 11 1 16 16 18 20 20
13 14 14 15 15 16 16 16 15 15 15 16 17 17 13 11 11 11 5 11 11 13 14 7 12 6 7 4 10 1 11 6 7 6 10 8 6 5 13 6 15 17 17 18 18
13 13 14 16 16 16 16 16 16 15 15 16 16 18 11 15 5 3 5 6 10 9 10 9 6 8 11 2 7 3 7 8 9 9 7 10 5 8 11 12 15 15 16 16 17
14 15 15 15 17 17 17 16 16 16 15 15 14 8 12 15 3 4 8 9 6 7 11 2 6 12 7 6 2 9 11 8 8 8 16 24 5 10 11 13 15 16 14 16 17
14 15 16 16 17 18 18 18 18 17 14 13 11 11 12 3 7 8 12 13 12 11 10 9 8 12 12 10 9 10 10 18 2 5 25 22 13 11 13 13 14 15 14 14 15
14 14 16 17 16 17 18 20 19 13 10 7 9 10 14 5 12 14 13 12 11 9 8 7 12 15 9 14 9 5 8 19 13 7 2 15 19 14 13 13 13 13 15 14 13
13 14 15 16 16 17 22 20 6 6 8 9 9 10 10 12 11 7 12 11 10 12 11 13 14 15 14 5 1 11 21 5 3 6 3 5 8 14 12 13 13 13 15 16 15
15 15 14 15 15 14 17 7 8 9 14 15 4 13 3 3 5 14 13 14 14 12 16 17 17 15 12 12 13 16 26 16 8 11 3 7 4 18 15 13 14 15 16 17 16
16 15 16 15 15 15 10 9 9 9 9 21 17 12 1 2 8 14 16 18 17 16 19 18 16 7 14 10 11 10 5 10 15 5 6 5 5 7 18 16 15 14 14 16 17
16 16 15 16 17 8 12 9 6 8 9 14 16 18 13 13 14 18 17 21 18 20 23 21 13 16 7 8 11 11 9 12 16 12 7 10 11 13 15 16 14 15 15 16 16
16 16 14 18 7 2 9 8 7 6 9 15 13 11 12 12 18 15 20 21 21 20 24 17 9 12 11 12 13 4 19 10 5 2 7 13 6 20 15 16 16 16 17 16 16
15 16 12 7 13 9 8 3 6 7 9 13 13 7 14 19 9 19 13 23 23 21 18 21 14 15 11 18 8 14 13 10 12 12 12 3 2 13 10 19 18 17 19 18 17
15 15 13 7 8 11 5 4 7 9 6 10 10 12 16 21 17 16 16 19 16 19 21 22 13 19 16 19 15 7 10 14 14 13 4 12 17 18 6 4 6 5 16 19 18
16 12 9 10 1 0 6 8 9 13 6 10 12 16 19 18 20 13 18 21 19 20 20 20 17 25 12 11 16 11 17 10 7 10 6 7 10 8 4 8 7 5 5 13 17
18 10 11 11 5 7 7 11 11 4 5 6 3 14 16 20 20 16 18 18 24 23 15 17 19 25 16 17 11 11 16 7 1 6 2 22 4 13 14 11 8 6 5 4 10
23 7 9 7 11 6 9 12 13 5 3 5 10 10 15 17 15 15 19 18 21 23 21 16 18 19 20 16 19 14 17 14 16 15 17 11 5 6 13 13 11 10 8 5 2
7 7 6 8 10 8 10 18 7 4 5 9 13 13 15 17 16 17 16 15 17 22 20 19 14 19 23 17 15 15 12 14 7 5 7 8 8 8 14 11 11 11 11 10 10
8 7 7 8 8 9 11 17 7 7 6 7 7 5 13 15 18 15 15 10 16 16 20 21 13 16 13 15 15 12 14 17 17 6 7 12 11 22 13 12 12 12 12 12 11
9 7 6 10 9 11 13 18 5 9 9 7 7 13 11 8 17 18 15 13 13 16 20 19 8 11 15 13 19 18 14 18 13 14 11 9 10 11 14 10 10 13 12 12 11
7 6 7 10 9 13 17 10 7 11 8 7 9 9 10 7 9 13 8 10 12 18 16 14 10 12 16 18 10 10 21 15 15 14 7 9 3 11 13 13 12 12 12 10 10
7 7 8 9 13 16 11 12 15 12 14 9 10 6 9 13 7 5 12 10 8 16 6 15 17 16 11 14 15 19 19 17 14 11 7 7 8 24 10 14 14 12 12 11 10
7 6 5 8 12 14 15 6 12 11 12 10 12 14 12 11 15 12 9 12 11 6 8 17 18 19 14 4 8 5 17 12 11 14 10 17 30 33 16 15 15 14 13 12 12
7 6 4 12 3 9 6 10 13 11 12 14 14 15 15 14 13 12 14 10 15 15 14 17 18 17 20 12 11 11 10 11 11 12 11 8 12 16 16 14 14 13 13 13 12
6 6 6 7 13 10 11 13 9 6 11 14 10 15 7 13 12 13 15 12 13 13 17 20 15 17 19 17 10 15 15 13 10 8 5 9 10 7 13 14 14 14 13 13 13
Wind_Direction
356 353 352 349 348 345 345 342 340 336 330 323 323 319 320 323 307 239 266 21 337 214 265 265 237 250 240 225 251 229 300 58 67 71 120 165 118 65 86 130 57 63 135 138 146
352 351 349 346 345 344 344 340 337 334 328 324 322 318 321 326 298 272 49 38 158 198 241 265 305 304 239 170 238 284 313 70 25 59 97 124 114 143 114 124 105 108 114 141 158
349 348 345 344 343 341 341 338 334 332 328 323 321 316 316 313 274 94 85 59 164 199 258 278 285 259 247 237 137 12 67 76 62 46 84 102 117 185 139 110 131 140 144 154 162
345 344 343 340 339 337 336 335 332 329 323 318 316 312 313 271 244 92 108 134 215 255 259 258 258 252 208 188 137 116 69 61 88 102 115 88 134 131 104 96 109 137 154 162 168
344 340 338 335 334 333 333 332 327 322 316 313 313 318 311 230 248 128 208 194 214 227 246 286 277 271 259 115 162 29 101 95 109 123 97 129 66 134 105 124 116 138 153 165 175
339 337 335 332 330 329 329 327 322 316 310 306 308 314 248 260 57 163 256 264 252 242 258 256 341 340 302 235 118 99 101 137 160 128 133 109 126 158 124 154 129 147 157 167 181
335 332 333 330 328 326 325 322 315 306 300 295 298 293 265 253 30 249 241 255 283 275 284 290 319 280 277 205 133 143 175 170 149 161 91 44 213 94 132 142 148 162 169 165 175
330 332 330 329 327 324 318 314 306 297 287 275 275 260 273 22 298 256 244 248 235 245 257 285 288 273 274 172 217 221 232 50 154 170 119 124 131 134 151 159 165 169 168 168 174
330 328 325 323 320 317 313 309 298 282 248 249 240 234 265 121 222 225 229 238 218 228 241 279 264 258 198 234 238 150 43 270 149 157 133 185 115 140 163 170 170 176 171 182 184
330 329 325 320 321 321 314 297 314 256 209 214 264 263 241 226 188 213 210 243 241 225 217 231 236 233 229 269 78 270 174 274 128 163 178 233 128 149 174 179 172 178 173 189 191
332 329 324 321 319 322 317 207 207 196 209 237 224 233 131 201 205 224 210 208 230 239 222 206 240 231 51 74 222 224 256 193 179 108 242 231 239 149 177 193 175 181 178 186 199
331 327 323 319 313 313 278 252 36 342 279 218 248 239 248 269 227 219 195 206 208 219 223 224 239 326 176 208 278 242 260 28 1 94 252 263 242 165 168 194 182 193 186 192 198
330 327 323 317 314 272 245 262 345 321 258 218 210 227 216 212 239 195 199 212 207 216 230 228 214 168 217 235 247 243 112 107 250 241 224 313 347 316 174 184 193 185 197 200 195
329 325 322 319 287 328 234 207 247 298 268 164 197 224 201 207 225 251 190 219 229 225 231 235 168 244 219 257 266 34 310 282 253 255 123 272 165 272 190 176 188 198 194 203 196
324 321 315 324 319 240 39 239 279 229 259 141 131 92 190 205 118 194 217 221 227 222 234 228 183 232 221 244 315 152 215 286 302 277 153 231 119 198 203 175 175 201 199 205 198
321 316 313 216 218 273 281 274 235 230 243 151 148 189 194 204 222 159 198 231 228 235 230 254 227 201 245 233 191 319 265 245 248 244 247 225 219 80 259 36 111 197 200 199 196
311 291 260 311 306 307 242 221 221 248 97 151 184 171 196 190 214 174 194 201 215 222 220 219 238 269 203 218 257 244 256 259 290 243 350 209 276 111 168 96 101 145 183 205 191
311 297 192 243 247 257 230 225 253 219 187 78 223 184 200 184 212 193 197 200 217 219 222 218 210 223 210 247 235 254 271 285 126 334 209 287 249 120 121 113 111 124 146 212 221
315 195 220 188 226 237 231 227 226 239 29 244 172 208 201 184 211 202 209 212 204 224 228 225 226 211 220 199 244 225 250 251 172 247 252 175 334 222 123 123 125 114 118 111 144
284 214 152 144 170 223 238 254 310 332 338 238 228 211 190 197 202 198 196 221 225 208 239 239 236 222 205 222 231 246 243 290 238 239 312 21 356 290 173 134 128 128 116 106 97
245 224 104 162 186 225 233 237 225 185 230 264 260 203 255 189 200 201 228 209 224 193 228 253 246 201 191 205 217 208 235 258 222 190 253 249 210 239 149 157 143 130 129 129 128
279 240 138 171 203 221 232 255 53 263 193 258 292 297 259 195 195 237 207 234 190 221 207 234 229 230 201 206 221 238 256 239 243 226 265 311 112 80 83 125 134 119 126 121 125
258 112 157 216 230 220 226 262 240 247 227 231 236 243 245 252 208 230 224 212 185 228 199 220 245 230 190 199 206 215 231 253 269 279 223 181 61 129 138 128 131 131 127 130 129
272 195 149 210 266 290 246 208 234 211 263 266 267 264 224 251 220 227 231 175 178 211 221 217 240 255 189 205 201 201 233 271 253 267 284 73 359 311 146 144 144 142 143 142 148
243 298 44 187 222 235 264 251 228 233 200 219 234 248 236 233 222 213 240 196 182 189 211 227 240 252 265 64 216 184 262 226 237 282 297 155 220 215 163 162 153 151 152 153 153
308 340 350 281 306 231 189 244 251 247 245 205 236 216 236 256 261 211 215 221 194 200 212 220 243 242 256 216 217 249 253 243 222 250 288 322 288 94 122 139 151 159 158 157 157
19 265 271 278 255 213 232 209 262 259 271 248 238 249 238 249 281 317 314 284 208 193 204 227 228 232 243 231 227 227 249 246 238 238 277 295 67 92 127 149 164 161 164 160 157